Pittston, PA

5:36 PM EST on December 08, 2016 (GMT -0500)
Wilkes-Barre-Scranton International

Weather History for KAVP - October, 2012

Change the Weather History Date:

Wednesday, October 10, 2012

  Actual Average Record
Temperature  
Mean Temperature 53 °F 53 °F  
Max Temperature 61 °F 63 °F 87 °F (1949)
Min Temperature 45 °F 43 °F 28 °F (1925)
Degree Days  
Heating Degree Days 12 12  
Month to date heating degree days 89 108  
Since 1 July heating degree days 206 270  
Cooling Degree Days 0 0  
Month to date cooling degree days 3 0  
Year to date cooling degree days 864 576  
Growing Degree Days 4 (Base 50)    
Moisture  
Dew Point 47 °F    
Average Humidity 75    
Maximum Humidity 96    
Minimum Humidity 53    
Precipitation  
Precipitation 0.04 in 0.12 in 1.21 in (1971)
Month to date precipitation 1.06 1.17  
Year to date precipitation 28.41 30.27  
Sea Level Pressure  
Sea Level Pressure 29.92 in    
Wind  
Wind Speed 7 mph (WSW)    
Max Wind Speed 18 mph    
Max Gust Speed 24 mph    
Visibility 9 miles    
Events Rain    
T = Trace of Precipitation, MM = Missing Value Source: NWS Daily Summary

Daily Weather History Graph

Daily Weather History Graph

Search for Another Location

Airport or City:

Trip Planner

Search our weather history database for the weather conditions in past years. The results will help you decide how hot, cold, wet, or windy it might be!

Date:

Astronomy

Oct. 10, 2012 Rise Set
Actual Time 7:09 AM EDT 6:29 PM EDT
Civil Twilight 6:41 AM EDT 6:56 PM EDT
Nautical Twilight 6:09 AM EDT 7:28 PM EDT
Astronomical Twilight 5:37 AM EDT 8:00 PM EDT
Moon 1:40 AM EDT (10/10) 3:33 PM EDT (10/10)
Length of Visible Light 12h 14m
Length of Day
11h 19m
Waning Crescent, 27% of the Moon is Illuminated
Oct 10
Waning Crescent
Oct 15
New
Oct 21
First Quarter
Oct 29
Full
Nov 6
Last Quarter

Hourly Weather History & Observations

Time (EDT) Temp. Dew Point Humidity Pressure Visibility Wind Dir Wind Speed Gust Speed Precip Events Conditions
12:54 AM 52.0 °F 50.0 °F 93% 30.04 in 9.0 mi Calm Calm - N/A   Overcast
1:54 AM 53.1 °F 50.0 °F 89% 30.03 in 10.0 mi Calm Calm - N/A   Overcast
2:54 AM 53.1 °F 51.1 °F 93% 30.00 in 10.0 mi Calm Calm - N/A   Overcast
3:54 AM 54.0 °F 51.1 °F 90% 29.97 in 10.0 mi Calm Calm - N/A   Overcast
4:54 AM 53.1 °F 50.0 °F 89% 29.95 in 10.0 mi Calm Calm - N/A   Overcast
5:05 AM 53.6 °F 50.0 °F 88% 29.96 in 10.0 mi NW 4.6 mph - N/A   Overcast
5:12 AM 53.6 °F 51.8 °F 94% 29.96 in 10.0 mi Calm Calm - N/A   Overcast
5:54 AM 54.0 °F 50.0 °F 86% 29.94 in 10.0 mi Calm Calm - N/A   Overcast
6:54 AM 54.0 °F 51.1 °F 90% 29.96 in 7.0 mi WSW 3.5 mph - 0.00 in Rain Light Rain
7:51 AM 53.6 °F 51.8 °F 94% 29.95 in 9.0 mi Calm Calm - 0.00 in   Overcast
7:54 AM 54.0 °F 52.0 °F 93% 29.95 in 9.0 mi Calm Calm - 0.00 in   Overcast
8:37 AM 53.6 °F 51.8 °F 94% 29.93 in 7.0 mi Calm Calm - N/A   Overcast
8:54 AM 55.0 °F 51.1 °F 86% 29.94 in 10.0 mi Variable 6.9 mph - N/A   Overcast
9:05 AM 55.4 °F 51.8 °F 88% 29.93 in 8.0 mi Variable 4.6 mph - N/A   Overcast
9:49 AM 55.4 °F 53.6 °F 94% 29.93 in 2.5 mi West 5.8 mph - 0.01 in Rain Light Rain
9:54 AM 54.0 °F 52.0 °F 93% 29.93 in 1.8 mi WSW 8.1 mph - 0.01 in Rain Light Rain
10:08 AM 53.6 °F 51.8 °F 94% 29.92 in 3.0 mi SSW 8.1 mph - 0.03 in Rain Light Rain
10:17 AM 55.4 °F 51.8 °F 88% 29.92 in 6.0 mi SSW 4.6 mph - 0.03 in Rain Light Rain
10:54 AM 55.9 °F 52.0 °F 87% 29.91 in 10.0 mi SW 5.8 mph - 0.03 in   Overcast
11:03 AM 55.4 °F 51.8 °F 88% 29.91 in 10.0 mi WSW 10.4 mph - N/A   Overcast
11:50 AM 55.4 °F 46.4 °F 72% 29.90 in 10.0 mi SW 13.8 mph 21.9 mph N/A   Overcast
11:54 AM 55.9 °F 46.9 °F 72% 29.90 in 10.0 mi SW 13.8 mph 21.9 mph N/A   Overcast
12:54 PM 57.0 °F 44.1 °F 62% 29.87 in 10.0 mi West 11.5 mph 23.0 mph N/A   Mostly Cloudy
1:54 PM 59.0 °F 42.1 °F 53% 29.84 in 10.0 mi SW 15.0 mph 21.9 mph N/A   Scattered Clouds
2:54 PM 57.9 °F 42.1 °F 56% 29.83 in 10.0 mi SW 13.8 mph 19.6 mph N/A   Overcast
3:54 PM 59.0 °F 42.1 °F 53% 29.82 in 10.0 mi SW 9.2 mph - N/A   Mostly Cloudy
4:54 PM 57.9 °F 43.0 °F 58% 29.82 in 10.0 mi WSW 9.2 mph - N/A   Overcast
5:54 PM 55.9 °F 44.1 °F 64% 29.83 in 10.0 mi WSW 5.8 mph - N/A   Overcast
6:54 PM 55.9 °F 43.0 °F 62% 29.85 in 10.0 mi WSW 13.8 mph - N/A   Mostly Cloudy
7:54 PM 53.1 °F 39.9 °F 61% 29.91 in 10.0 mi NNW 18.4 mph 24.2 mph N/A   Scattered Clouds
8:54 PM 51.1 °F 37.9 °F 61% 29.93 in 10.0 mi WNW 5.8 mph - N/A   Mostly Cloudy
9:54 PM 50.0 °F 37.0 °F 61% 29.96 in 10.0 mi WNW 6.9 mph - N/A   Overcast
10:54 PM 48.9 °F 37.9 °F 66% 29.98 in 10.0 mi West 6.9 mph - N/A   Overcast
11:54 PM 46.9 °F 36.0 °F 66% 29.99 in 10.0 mi West 5.8 mph - N/A   Partly Cloudy